Time,TemperatureF,DewpointF,PressureIn,WindDirection,WindDirectionDegrees,WindSpeedMPH,WindSpeedGustMPH,Humidity,HourlyPrecipIn,Conditions,Clouds,dailyrainin,SoftwareType,DateUTC
2013-06-30 00:01:00,65.8,53.3,30.65,NE,45,0.0,0.0,64,0.00,,---,0.00,VWS V13.01,2013-06-30 07:01:00,
2013-06-30 00:06:00,65.8,53.3,30.65,NE,45,0.0,0.0,64,0.00,,---,0.00,VWS V13.01,2013-06-30 07:06:00,
2013-06-30 00:11:00,65.8,53.8,30.68,NE,45,0.0,0.0,65,0.00,,---,0.00,VWS V13.01,2013-06-30 07:11:00,
2013-06-30 00:16:00,65.7,53.6,30.68,NE,45,0.0,0.0,65,0.00,,---,0.00,VWS V13.01,2013-06-30 07:16:00,
2013-06-30 00:21:00,65.3,53.2,30.68,NE,45,0.0,0.0,65,0.00,,---,0.00,VWS V13.01,2013-06-30 07:21:00,
2013-06-30 00:26:00,65.1,53.5,30.65,NE,45,0.0,0.0,66,0.00,,---,0.00,VWS V13.01,2013-06-30 07:26:00,
2013-06-30 00:31:00,64.8,53.2,30.65,NE,45,0.0,0.0,66,0.00,,---,0.00,VWS V13.01,2013-06-30 07:31:00,
2013-06-30 00:36:00,64.4,53.2,30.65,NE,45,0.0,0.0,67,0.00,,---,0.00,VWS V13.01,2013-06-30 07:36:00,
2013-06-30 00:41:00,64.4,53.6,30.65,NE,45,0.0,0.0,68,0.00,,---,0.00,VWS V13.01,2013-06-30 07:41:00,
2013-06-30 00:46:00,64.2,53.5,30.65,NE,45,0.0,0.0,68,0.00,,---,0.00,VWS V13.01,2013-06-30 07:46:00,
2013-06-30 00:51:00,64.2,53.5,30.65,NE,45,0.0,0.0,68,0.00,,---,0.00,VWS V13.01,2013-06-30 07:51:00,
2013-06-30 00:56:00,64.2,53.0,30.65,NE,45,0.0,0.0,67,0.00,,---,0.00,VWS V13.01,2013-06-30 07:56:00,
2013-06-30 01:01:00,64.4,53.2,30.65,NE,45,0.0,0.0,67,0.00,,---,0.00,VWS V13.01,2013-06-30 08:01:00,
2013-06-30 01:06:00,64.2,53.0,30.65,NE,45,0.0,0.0,67,0.00,,---,0.00,VWS V13.01,2013-06-30 08:06:00,
2013-06-30 01:11:00,64.4,53.2,30.65,NE,45,0.0,0.0,67,0.00,,---,0.00,VWS V13.01,2013-06-30 08:11:00,
2013-06-30 01:16:00,64.0,52.9,30.68,NE,45,0.0,0.0,67,0.00,,---,0.00,VWS V13.01,2013-06-30 08:16:00,
2013-06-30 01:21:00,63.9,53.1,30.68,NE,45,0.0,0.0,68,0.00,,---,0.00,VWS V13.01,2013-06-30 08:21:00,
2013-06-30 01:26:00,63.7,52.9,30.68,NE,45,0.0,0.0,68,0.00,,---,0.00,VWS V13.01,2013-06-30 08:26:00,
2013-06-30 01:31:00,63.3,52.6,30.65,NE,45,0.0,0.0,68,0.00,,---,0.00,VWS V13.01,2013-06-30 08:31:00,
2013-06-30 01:36:00,63.3,53.0,30.65,NE,45,0.0,0.0,69,0.00,,---,0.00,VWS V13.01,2013-06-30 08:36:00,
2013-06-30 01:41:00,63.0,52.6,30.65,NE,45,0.0,0.0,69,0.00,,---,0.00,VWS V13.01,2013-06-30 08:41:00,
2013-06-30 01:46:00,63.0,53.0,30.65,NE,45,0.0,0.0,70,0.00,,---,0.00,VWS V13.01,2013-06-30 08:46:00,
2013-06-30 01:51:00,63.0,53.0,30.65,NE,45,0.0,0.0,70,0.00,,---,0.00,VWS V13.01,2013-06-30 08:51:00,
2013-06-30 01:56:00,63.1,53.2,30.65,NE,45,2.7,2.7,70,0.00,,---,0.00,VWS V13.01,2013-06-30 08:56:00,
2013-06-30 02:01:00,63.0,53.0,30.68,NE,45,2.2,3.1,70,0.00,,---,0.00,VWS V13.01,2013-06-30 09:01:00,
2013-06-30 02:06:00,62.8,52.9,30.68,NE,45,0.0,4.0,70,0.00,,---,0.00,VWS V13.01,2013-06-30 09:06:00,
2013-06-30 02:11:00,62.2,52.7,30.68,NE,45,2.2,2.2,71,0.00,,---,0.00,VWS V13.01,2013-06-30 09:11:00,
2013-06-30 02:16:00,61.9,52.4,30.65,NE,45,0.0,0.0,71,0.00,,---,0.00,VWS V13.01,2013-06-30 09:16:00,
2013-06-30 02:21:00,61.7,52.6,30.65,NE,45,0.0,0.0,72,0.00,,---,0.00,VWS V13.01,2013-06-30 09:21:00,
2013-06-30 02:26:00,61.2,52.5,30.65,NE,45,0.0,0.0,73,0.00,,---,0.00,VWS V13.01,2013-06-30 09:26:00,
2013-06-30 02:31:00,61.2,52.8,30.65,NE,45,0.0,3.1,74,0.00,,---,0.00,VWS V13.01,2013-06-30 09:31:00,
2013-06-30 02:36:00,60.8,52.5,30.65,NE,45,2.7,2.7,74,0.00,,---,0.00,VWS V13.01,2013-06-30 09:36:00,
2013-06-30 02:41:00,60.8,52.8,30.65,NE,45,2.2,2.2,75,0.00,,---,0.00,VWS V13.01,2013-06-30 09:41:00,
2013-06-30 02:46:00,60.6,52.7,30.65,NE,45,2.2,2.7,75,0.00,,---,0.00,VWS V13.01,2013-06-30 09:46:00,
2013-06-30 02:51:00,60.4,52.5,30.65,NE,45,0.0,0.0,75,0.00,,---,0.00,VWS V13.01,2013-06-30 09:51:00,
2013-06-30 02:56:00,59.9,52.3,30.65,NE,45,0.0,0.0,76,0.00,,---,0.00,VWS V13.01,2013-06-30 09:56:00,
2013-06-30 03:01:00,59.5,52.3,30.65,NE,45,0.0,0.0,77,0.00,,---,0.00,VWS V13.01,2013-06-30 10:01:00,
2013-06-30 03:06:00,59.2,52.3,30.65,NE,45,0.0,0.0,78,0.00,,---,0.00,VWS V13.01,2013-06-30 10:06:00,
2013-06-30 03:11:00,59.4,52.9,30.65,NE,45,0.0,2.2,79,0.00,,---,0.00,VWS V13.01,2013-06-30 10:11:00,
2013-06-30 03:16:00,59.5,53.0,30.65,NE,45,0.0,0.0,79,0.00,,---,0.00,VWS V13.01,2013-06-30 10:16:00,
2013-06-30 03:21:00,59.5,53.0,30.65,NE,45,0.0,2.2,79,0.00,,---,0.00,VWS V13.01,2013-06-30 10:21:00,
2013-06-30 03:25:00,59.4,52.9,30.65,NE,45,2.2,2.7,79,0.00,,---,0.00,VWS V13.01,2013-06-30 10:25:00,
2013-06-30 03:30:00,59.4,52.9,30.65,NE,45,0.0,0.0,79,0.00,,---,0.00,VWS V13.01,2013-06-30 10:30:00,
2013-06-30 03:35:00,59.2,52.7,30.65,NE,45,0.0,0.0,79,0.00,,---,0.00,VWS V13.01,2013-06-30 10:35:00,
2013-06-30 03:40:00,59.2,52.7,30.65,NE,45,3.1,3.6,79,0.00,,---,0.00,VWS V13.01,2013-06-30 10:40:00,
2013-06-30 03:45:00,59.2,52.7,30.68,NE,45,2.2,2.7,79,0.00,,---,0.00,VWS V13.01,2013-06-30 10:45:00,
2013-06-30 03:50:00,59.4,52.9,30.68,NE,45,2.2,2.7,79,0.00,,---,0.00,VWS V13.01,2013-06-30 10:50:00,
2013-06-30 03:55:00,59.4,52.9,30.68,NE,45,2.2,2.7,79,0.00,,---,0.00,VWS V13.01,2013-06-30 10:55:00,
2013-06-30 04:00:00,59.2,52.7,30.65,NE,45,0.0,0.0,79,0.00,,---,0.00,VWS V13.01,2013-06-30 11:00:00,
2013-06-30 04:05:00,58.6,52.2,30.65,NE,45,0.0,0.0,79,0.00,,---,0.00,VWS V13.01,2013-06-30 11:05:00,
2013-06-30 04:10:00,58.3,52.2,30.65,NE,45,0.0,0.0,80,0.00,,---,0.00,VWS V13.01,2013-06-30 11:10:00,
2013-06-30 04:15:00,57.9,52.1,30.65,NE,45,0.0,0.0,81,0.00,,---,0.00,VWS V13.01,2013-06-30 11:15:00,
2013-06-30 04:20:00,57.9,52.5,30.65,NE,45,3.1,3.1,82,0.00,,---,0.00,VWS V13.01,2013-06-30 11:20:00,
2013-06-30 04:25:00,58.5,53.3,30.65,NE,45,2.7,3.1,83,0.00,,---,0.00,VWS V13.01,2013-06-30 11:25:00,
2013-06-30 04:30:00,58.5,53.0,30.65,NE,45,2.2,3.1,82,0.00,,---,0.00,VWS V13.01,2013-06-30 11:30:00,
2013-06-30 04:35:00,58.5,53.0,30.65,NE,45,0.0,0.0,82,0.00,,---,0.00,VWS V13.01,2013-06-30 11:35:00,
2013-06-30 04:40:00,58.3,52.8,30.65,NE,45,0.0,0.0,82,0.00,,---,0.00,VWS V13.01,2013-06-30 11:40:00,
2013-06-30 04:45:00,58.1,52.6,30.65,NE,45,0.0,0.0,82,0.00,,---,0.00,VWS V13.01,2013-06-30 11:45:00,
2013-06-30 04:50:00,57.9,52.5,30.65,NE,45,2.2,2.2,82,0.00,,---,0.00,VWS V13.01,2013-06-30 11:50:00,
2013-06-30 04:55:00,57.9,52.8,30.65,NE,45,0.0,0.0,83,0.00,,---,0.00,VWS V13.01,2013-06-30 11:55:00,
2013-06-30 05:00:00,57.7,52.6,30.65,NE,45,0.0,0.0,83,0.00,,---,0.00,VWS V13.01,2013-06-30 12:00:00,
2013-06-30 05:05:00,57.6,52.4,30.65,NE,45,2.2,2.2,83,0.00,,---,0.00,VWS V13.01,2013-06-30 12:05:00,
2013-06-30 05:10:00,57.9,52.8,30.65,NE,45,0.0,0.0,83,0.00,,---,0.00,VWS V13.01,2013-06-30 12:10:00,
2013-06-30 05:15:00,57.6,52.4,30.65,NE,45,0.0,0.0,83,0.00,,---,0.00,VWS V13.01,2013-06-30 12:15:00,
2013-06-30 05:20:00,57.2,52.1,30.65,NE,45,0.0,0.0,83,0.00,,---,0.00,VWS V13.01,2013-06-30 12:20:00,
2013-06-30 05:25:00,56.7,51.9,30.65,NE,45,0.0,0.0,84,0.00,,---,0.00,VWS V13.01,2013-06-30 12:25:00,
2013-06-30 05:30:00,56.7,52.2,30.65,NE,45,0.0,0.0,85,0.00,,---,0.00,VWS V13.01,2013-06-30 12:30:00,
2013-06-30 05:35:00,56.3,52.5,30.65,NE,45,0.0,0.0,87,0.00,,---,0.00,VWS V13.01,2013-06-30 12:35:00,
2013-06-30 05:40:00,55.9,52.1,30.65,NE,45,0.0,0.0,87,0.00,,---,0.00,VWS V13.01,2013-06-30 12:40:00,
2013-06-30 05:45:00,55.6,52.1,30.65,NE,45,0.0,0.0,88,0.00,,---,0.00,VWS V13.01,2013-06-30 12:45:00,
2013-06-30 05:50:00,55.6,52.7,30.65,NE,45,0.0,0.0,90,0.00,,---,0.00,VWS V13.01,2013-06-30 12:50:00,
2013-06-30 05:55:00,55.4,52.8,30.65,NE,45,0.0,0.0,91,0.00,,---,0.00,VWS V13.01,2013-06-30 12:55:00,
2013-06-30 06:00:00,55.9,53.7,30.65,NE,45,0.0,0.0,92,0.00,,---,0.00,VWS V13.01,2013-06-30 13:00:00,
2013-06-30 06:05:00,56.7,54.1,30.65,NE,45,0.0,0.0,91,0.00,,---,0.00,VWS V13.01,2013-06-30 13:05:00,
2013-06-30 06:10:00,56.7,54.1,30.65,NE,45,0.0,0.0,91,0.00,,---,0.00,VWS V13.01,2013-06-30 13:10:00,
2013-06-30 06:15:00,57.4,54.2,30.65,NE,45,0.0,0.0,89,0.00,,---,0.00,VWS V13.01,2013-06-30 13:15:00,
2013-06-30 06:20:00,57.4,53.9,30.65,NE,45,0.0,0.0,88,0.00,,---,0.00,VWS V13.01,2013-06-30 13:20:00,
2013-06-30 06:25:00,58.1,54.3,30.65,NE,45,0.0,0.0,87,0.00,,---,0.00,VWS V13.01,2013-06-30 13:25:00,
2013-06-30 06:30:00,59.0,54.2,30.68,NE,45,0.0,2.2,84,0.00,,---,0.00,VWS V13.01,2013-06-30 13:30:00,
2013-06-30 06:35:00,60.3,54.4,30.68,NE,45,2.7,2.7,81,0.00,,---,0.00,VWS V13.01,2013-06-30 13:35:00,
2013-06-30 06:40:00,61.0,53.7,30.68,NE,45,0.0,2.2,77,0.00,,---,0.00,VWS V13.01,2013-06-30 13:40:00,
2013-06-30 06:45:00,61.2,53.5,30.68,NE,45,0.0,0.0,76,0.00,,---,0.00,VWS V13.01,2013-06-30 13:45:00,
2013-06-30 06:50:00,61.7,53.3,30.68,NE,45,0.0,0.0,74,0.00,,---,0.00,VWS V13.01,2013-06-30 13:50:00,
2013-06-30 06:55:00,63.0,53.4,30.68,NE,45,3.1,3.1,71,0.00,,---,0.00,VWS V13.01,2013-06-30 13:55:00,
2013-06-30 07:00:00,63.5,53.2,30.68,NE,45,0.0,0.0,69,0.00,,---,0.00,VWS V13.01,2013-06-30 14:00:00,
2013-06-30 07:05:00,64.0,53.3,30.68,NE,45,0.0,0.0,68,0.00,,---,0.00,VWS V13.01,2013-06-30 14:05:00,
2013-06-30 07:10:00,64.8,53.6,30.68,NE,45,0.0,2.2,67,0.00,,---,0.00,VWS V13.01,2013-06-30 14:10:00,
2013-06-30 07:15:00,65.1,53.1,30.68,NE,45,0.0,2.7,65,0.00,,---,0.00,VWS V13.01,2013-06-30 14:15:00,
2013-06-30 07:20:00,65.8,52.5,30.68,NE,45,2.2,2.7,62,0.00,,---,0.00,VWS V13.01,2013-06-30 14:20:00,
2013-06-30 07:25:00,66.2,51.9,30.68,NE,45,2.2,2.2,60,0.00,,---,0.00,VWS V13.01,2013-06-30 14:25:00,
2013-06-30 07:30:00,66.9,50.7,30.68,NE,45,2.7,2.7,56,0.00,,---,0.00,VWS V13.01,2013-06-30 14:30:00,
2013-06-30 07:35:00,66.9,51.2,30.68,NE,45,0.0,0.0,57,0.00,,---,0.00,VWS V13.01,2013-06-30 14:35:00,
2013-06-30 07:40:00,67.5,49.8,30.68,NE,45,0.0,2.2,53,0.00,,---,0.00,VWS V13.01,2013-06-30 14:40:00,
2013-06-30 07:45:00,67.5,49.2,30.68,NE,45,0.0,0.0,52,0.00,,---,0.00,VWS V13.01,2013-06-30 14:45:00,
2013-06-30 07:50:00,67.6,49.4,30.68,NE,45,0.0,0.0,52,0.00,,---,0.00,VWS V13.01,2013-06-30 14:50:00,
2013-06-30 07:55:00,68.0,49.7,30.68,NE,45,2.7,2.7,52,0.00,,---,0.00,VWS V13.01,2013-06-30 14:55:00,
2013-06-30 08:00:00,69.6,50.7,30.68,NE,45,0.0,0.0,51,0.00,,---,0.00,VWS V13.01,2013-06-30 15:00:00,
2013-06-30 08:05:00,71.1,49.8,30.68,NW,315,2.7,2.7,47,0.00,,---,0.00,VWS V13.01,2013-06-30 15:05:00,
2013-06-30 08:10:00,71.8,48.1,30.68,NW,315,0.0,3.1,43,0.00,,---,0.00,VWS V13.01,2013-06-30 15:10:00,
2013-06-30 08:15:00,72.7,47.7,30.68,NW,315,3.6,3.6,41,0.00,,---,0.00,VWS V13.01,2013-06-30 15:15:00,
2013-06-30 08:20:00,72.9,47.2,30.68,WNW,292,2.2,3.6,40,0.00,,---,0.00,VWS V13.01,2013-06-30 15:20:00,
2013-06-30 08:25:00,73.8,48.0,30.68,NW,315,0.0,0.0,40,0.00,,---,0.00,VWS V13.01,2013-06-30 15:25:00,
2013-06-30 08:30:00,74.1,47.6,30.65,North,0,0.0,3.6,39,0.00,,---,0.00,VWS V13.01,2013-06-30 15:30:00,
2013-06-30 08:35:00,74.7,47.4,30.65,North,0,3.1,3.1,38,0.00,,---,0.00,VWS V13.01,2013-06-30 15:35:00,
2013-06-30 08:40:00,75.2,47.2,30.65,North,0,0.0,0.0,37,0.00,,---,0.00,VWS V13.01,2013-06-30 15:40:00,
2013-06-30 08:45:00,76.1,48.0,30.65,NW,315,2.2,2.2,37,0.00,,---,0.00,VWS V13.01,2013-06-30 15:45:00,
2013-06-30 08:50:00,76.6,48.4,30.65,NW,315,2.2,2.2,37,0.00,,---,0.00,VWS V13.01,2013-06-30 15:50:00,
2013-06-30 08:55:00,76.5,48.3,30.65,East,90,0.0,2.2,37,0.00,,---,0.00,VWS V13.01,2013-06-30 15:55:00,
2013-06-30 09:00:00,76.8,48.6,30.65,NE,45,3.1,3.1,37,0.00,,---,0.00,VWS V13.01,2013-06-30 16:00:00,
2013-06-30 09:05:00,77.9,48.8,30.65,NE,45,0.0,0.0,36,0.00,,---,0.00,VWS V13.01,2013-06-30 16:05:00,
2013-06-30 09:10:00,78.4,48.5,30.65,NE,45,3.1,3.1,35,0.00,,---,0.00,VWS V13.01,2013-06-30 16:10:00,
2013-06-30 09:15:00,78.1,49.0,30.65,NE,45,3.6,3.6,36,0.00,,---,0.00,VWS V13.01,2013-06-30 16:15:00,
2013-06-30 09:20:00,78.6,48.7,30.65,NE,45,0.0,0.0,35,0.00,,---,0.00,VWS V13.01,2013-06-30 16:20:00,
2013-06-30 09:25:00,79.9,49.8,30.65,NE,45,5.4,5.4,35,0.00,,---,0.00,VWS V13.01,2013-06-30 16:25:00,
2013-06-30 09:30:00,80.1,50.0,30.65,NE,45,0.0,0.0,35,0.00,,---,0.00,VWS V13.01,2013-06-30 16:30:00,
2013-06-30 09:35:00,80.2,49.3,30.65,NE,45,2.7,4.9,34,0.00,,---,0.00,VWS V13.01,2013-06-30 16:35:00,
2013-06-30 09:40:00,79.5,48.7,30.65,NE,45,2.2,3.1,34,0.00,,---,0.00,VWS V13.01,2013-06-30 16:40:00,
2013-06-30 09:45:00,80.1,50.0,30.65,NE,45,0.0,0.0,35,0.00,,---,0.00,VWS V13.01,2013-06-30 16:45:00,
2013-06-30 09:50:00,81.5,49.7,30.65,NE,45,0.0,0.0,33,0.00,,---,0.00,VWS V13.01,2013-06-30 16:50:00,
2013-06-30 09:55:00,82.0,50.1,30.65,NE,45,0.0,2.2,33,0.00,,---,0.00,VWS V13.01,2013-06-30 16:55:00,
2013-06-30 10:00:00,82.4,50.4,30.65,NE,45,3.1,3.1,33,0.00,,---,0.00,VWS V13.01,2013-06-30 17:00:00,
2013-06-30 10:05:00,82.4,49.6,30.65,NE,45,4.0,4.9,32,0.00,,---,0.00,VWS V13.01,2013-06-30 17:05:00,
2013-06-30 10:10:00,82.4,49.6,30.65,NE,45,4.0,4.9,32,0.00,,---,0.00,VWS V13.01,2013-06-30 17:10:00,
2013-06-30 10:15:00,81.7,49.0,30.62,South,180,2.7,3.6,32,0.00,,---,0.00,VWS V13.01,2013-06-30 17:15:00,
2013-06-30 10:20:00,82.6,50.6,30.62,NE,45,4.9,4.9,33,0.00,,---,0.00,VWS V13.01,2013-06-30 17:20:00,
2013-06-30 10:25:00,82.2,50.3,30.62,East,90,2.2,6.3,33,0.00,,---,0.00,VWS V13.01,2013-06-30 17:25:00,
2013-06-30 10:30:00,83.1,51.1,30.62,East,90,3.1,3.1,33,0.00,,---,0.00,VWS V13.01,2013-06-30 17:30:00,
2013-06-30 10:35:00,83.7,51.5,30.65,ENE,68,4.0,4.0,33,0.00,,---,0.00,VWS V13.01,2013-06-30 17:35:00,
2013-06-30 10:40:00,83.7,49.8,30.65,NW,315,2.2,3.1,31,0.00,,---,0.00,VWS V13.01,2013-06-30 17:40:00,
2013-06-30 10:45:00,83.8,50.0,30.65,South,180,3.1,3.1,31,0.00,,---,0.00,VWS V13.01,2013-06-30 17:45:00,
2013-06-30 10:50:00,84.9,51.8,30.62,ESE,112,2.2,2.2,32,0.00,,---,0.00,VWS V13.01,2013-06-30 17:50:00,
2013-06-30 10:55:00,84.0,50.2,30.62,North,0,5.4,5.4,31,0.00,,---,0.00,VWS V13.01,2013-06-30 17:55:00,
2013-06-30 11:00:00,85.1,51.1,30.62,NE,45,3.1,3.1,31,0.00,,---,0.00,VWS V13.01,2013-06-30 18:00:00,
2013-06-30 11:05:00,85.3,51.2,30.62,NE,45,4.0,4.0,31,0.00,,---,0.00,VWS V13.01,2013-06-30 18:05:00,
2013-06-30 11:10:00,85.6,52.4,30.62,SE,135,2.7,2.7,32,0.00,,---,0.00,VWS V13.01,2013-06-30 18:10:00,
2013-06-30 11:15:00,86.7,51.6,30.62,SE,135,2.2,2.7,30,0.00,,---,0.00,VWS V13.01,2013-06-30 18:15:00,
2013-06-30 11:20:00,86.2,51.1,30.62,NE,45,3.1,3.6,30,0.00,,---,0.00,VWS V13.01,2013-06-30 18:20:00,
2013-06-30 11:25:00,86.5,51.5,30.62,NE,45,4.5,4.5,30,0.00,,---,0.00,VWS V13.01,2013-06-30 18:25:00,
2013-06-30 11:30:00,86.2,51.1,30.62,NE,45,4.5,5.8,30,0.00,,---,0.00,VWS V13.01,2013-06-30 18:30:00,
2013-06-30 11:35:00,85.5,50.5,30.62,NW,315,3.1,4.9,30,0.00,,---,0.00,VWS V13.01,2013-06-30 18:35:00,
2013-06-30 11:40:00,85.8,50.8,30.62,North,0,4.9,8.7,30,0.00,,---,0.00,VWS V13.01,2013-06-30 18:40:00,
2013-06-30 11:45:00,86.5,51.5,30.62,NW,315,4.0,4.9,30,0.00,,---,0.00,VWS V13.01,2013-06-30 18:45:00,
2013-06-30 11:50:00,87.4,51.3,30.62,North,0,0.0,0.0,29,0.00,,---,0.00,VWS V13.01,2013-06-30 18:50:00,
2013-06-30 11:55:00,87.1,51.0,30.62,East,90,3.6,5.8,29,0.00,,---,0.00,VWS V13.01,2013-06-30 18:55:00,
2013-06-30 12:00:00,88.0,51.8,30.62,NE,45,2.7,2.7,29,0.00,,---,0.00,VWS V13.01,2013-06-30 19:00:00,
2013-06-30 12:05:00,88.5,52.2,30.62,NE,45,2.7,3.1,29,0.00,,---,0.00,VWS V13.01,2013-06-30 19:05:00,
2013-06-30 12:10:00,89.1,52.7,30.62,NE,45,2.2,3.1,29,0.00,,---,0.00,VWS V13.01,2013-06-30 19:10:00,
2013-06-30 12:15:00,88.9,52.5,30.59,NE,45,8.1,8.1,29,0.00,,---,0.00,VWS V13.01,2013-06-30 19:15:00,
2013-06-30 12:20:00,89.1,53.6,30.59,NE,45,0.0,2.7,30,0.00,,---,0.00,VWS V13.01,2013-06-30 19:20:00,
2013-06-30 12:25:00,90.1,52.7,30.59,NE,45,3.1,3.1,28,0.00,,---,0.00,VWS V13.01,2013-06-30 19:25:00,
2013-06-30 12:30:00,89.1,51.8,30.62,West,270,3.1,3.1,28,0.00,,---,0.00,VWS V13.01,2013-06-30 19:30:00,
2013-06-30 12:35:00,89.2,51.9,30.62,NNE,22,7.2,7.2,28,0.00,,---,0.00,VWS V13.01,2013-06-30 19:35:00,
2013-06-30 12:40:00,88.9,51.6,30.59,NW,315,3.6,3.6,28,0.00,,---,0.00,VWS V13.01,2013-06-30 19:40:00,
2013-06-30 12:45:00,88.7,51.4,30.59,NE,45,7.2,7.2,28,0.00,,---,0.00,VWS V13.01,2013-06-30 19:45:00,
2013-06-30 12:50:00,88.9,51.6,30.59,NE,45,5.4,5.4,28,0.00,,---,0.00,VWS V13.01,2013-06-30 19:50:00,
2013-06-30 12:55:00,89.2,51.9,30.59,NE,45,5.8,5.8,28,0.00,,---,0.00,VWS V13.01,2013-06-30 19:55:00,
2013-06-30 13:00:00,88.7,51.4,30.59,NE,45,10.5,12.3,28,0.00,,---,0.00,VWS V13.01,2013-06-30 20:00:00,
2013-06-30 13:05:00,89.2,51.9,30.59,West,270,4.9,6.3,28,0.00,,---,0.00,VWS V13.01,2013-06-30 20:05:00,
2013-06-30 13:10:00,89.6,52.2,30.59,NE,45,9.2,9.2,28,0.00,,---,0.00,VWS V13.01,2013-06-30 20:10:00,
2013-06-30 13:15:00,90.3,52.8,30.56,NW,315,4.9,4.9,28,0.00,,---,0.00,VWS V13.01,2013-06-30 20:15:00,
2013-06-30 13:20:00,90.9,53.3,30.56,NE,45,7.2,8.7,28,0.00,,---,0.00,VWS V13.01,2013-06-30 20:20:00,
2013-06-30 13:25:00,90.1,52.7,30.56,North,0,5.4,5.4,28,0.00,,---,0.00,VWS V13.01,2013-06-30 20:25:00,
2013-06-30 13:30:00,90.1,52.7,30.56,NE,45,7.6,7.6,28,0.00,,---,0.00,VWS V13.01,2013-06-30 20:30:00,
2013-06-30 13:35:00,90.1,52.7,30.56,NW,315,3.1,5.4,28,0.00,,---,0.00,VWS V13.01,2013-06-30 20:35:00,
2013-06-30 13:40:00,90.1,52.7,30.56,NE,45,8.3,8.3,28,0.00,,---,0.00,VWS V13.01,2013-06-30 20:40:00,
2013-06-30 13:45:00,90.1,52.7,30.56,NE,45,4.9,5.8,28,0.00,,---,0.00,VWS V13.01,2013-06-30 20:45:00,
2013-06-30 13:50:00,90.1,52.7,30.56,North,0,10.5,10.5,28,0.00,,---,0.00,VWS V13.01,2013-06-30 20:50:00,
2013-06-30 13:55:00,90.1,52.7,30.56,NNE,22,7.2,7.2,28,0.00,,---,0.00,VWS V13.01,2013-06-30 20:55:00,
2013-06-30 14:00:00,90.1,52.7,30.56,NE,45,3.1,4.0,28,0.00,,---,0.00,VWS V13.01,2013-06-30 21:00:00,
2013-06-30 14:05:00,90.1,52.7,30.56,NE,45,7.6,7.6,28,0.00,,---,0.00,VWS V13.01,2013-06-30 21:05:00,
2013-06-30 14:10:00,90.1,52.7,30.56,North,0,8.1,8.1,28,0.00,,---,0.00,VWS V13.01,2013-06-30 21:10:00,
2013-06-30 14:15:00,91.9,53.2,30.56,North,0,4.9,5.4,27,0.00,,---,0.00,VWS V13.01,2013-06-30 21:15:00,
2013-06-30 14:20:00,91.9,53.2,30.56,NE,45,8.1,11.9,27,0.00,,---,0.00,VWS V13.01,2013-06-30 21:20:00,
2013-06-30 14:25:00,91.9,53.2,30.56,North,0,8.3,8.7,27,0.00,,---,0.00,VWS V13.01,2013-06-30 21:25:00,
2013-06-30 14:30:00,91.8,53.1,30.56,NW,315,7.6,8.3,27,0.00,,---,0.00,VWS V13.01,2013-06-30 21:30:00,
2013-06-30 14:35:00,92.1,53.4,30.56,North,0,11.0,11.0,27,0.00,,---,0.00,VWS V13.01,2013-06-30 21:35:00,
2013-06-30 14:40:00,92.3,52.5,30.56,North,0,6.3,6.3,26,0.00,,---,0.00,VWS V13.01,2013-06-30 21:40:00,
2013-06-30 14:45:00,92.3,53.5,30.56,North,0,6.3,6.3,27,0.00,,---,0.00,VWS V13.01,2013-06-30 21:45:00,
2013-06-30 14:50:00,92.3,52.5,30.56,North,0,5.4,6.3,26,0.00,,---,0.00,VWS V13.01,2013-06-30 21:50:00,
2013-06-30 14:55:00,92.7,51.7,30.56,North,0,5.8,8.7,25,0.00,,---,0.00,VWS V13.01,2013-06-30 21:55:00,
2013-06-30 15:00:00,92.7,51.7,30.53,North,0,4.0,5.8,25,0.00,,---,0.00,VWS V13.01,2013-06-30 22:00:00,
2013-06-30 15:05:00,93.2,53.2,30.53,North,0,9.6,9.6,26,0.00,,---,0.00,VWS V13.01,2013-06-30 22:05:00,
2013-06-30 15:10:00,93.7,52.6,30.53,NE,45,8.3,8.7,25,0.00,,---,0.00,VWS V13.01,2013-06-30 22:10:00,
2013-06-30 15:15:00,92.8,50.8,30.53,North,0,8.3,8.3,24,0.00,,---,0.00,VWS V13.01,2013-06-30 22:15:00,
2013-06-30 15:20:00,93.0,53.1,30.53,NE,45,8.3,11.0,26,0.00,,---,0.00,VWS V13.01,2013-06-30 22:20:00,
2013-06-30 15:25:00,92.8,51.9,30.53,North,0,4.9,7.6,25,0.00,,---,0.00,VWS V13.01,2013-06-30 22:25:00,
2013-06-30 15:30:00,93.4,53.4,30.53,NNE,22,9.6,9.6,26,0.00,,---,0.00,VWS V13.01,2013-06-30 22:30:00,
2013-06-30 15:35:00,93.6,52.5,30.53,NE,45,7.2,8.3,25,0.00,,---,0.00,VWS V13.01,2013-06-30 22:35:00,
2013-06-30 15:40:00,93.4,52.3,30.53,NNW,338,7.6,8.3,25,0.00,,---,0.00,VWS V13.01,2013-06-30 22:40:00,
2013-06-30 15:45:00,93.4,51.2,30.53,North,0,7.2,10.1,24,0.00,,---,0.00,VWS V13.01,2013-06-30 22:45:00,
2013-06-30 15:50:00,93.6,52.5,30.53,NE,45,10.1,10.1,25,0.00,,---,0.00,VWS V13.01,2013-06-30 22:50:00,
2013-06-30 15:55:00,93.2,52.2,30.53,NE,45,8.3,8.3,25,0.00,,---,0.00,VWS V13.01,2013-06-30 22:55:00,
2013-06-30 16:00:00,93.4,51.2,30.53,NE,45,10.1,10.1,24,0.00,,---,0.00,VWS V13.01,2013-06-30 23:00:00,
2013-06-30 16:05:00,93.9,51.7,30.53,North,0,7.6,7.6,24,0.00,,---,0.00,VWS V13.01,2013-06-30 23:05:00,
2013-06-30 16:10:00,94.1,50.7,30.53,NE,45,8.7,10.5,23,0.00,,---,0.00,VWS V13.01,2013-06-30 23:10:00,
2013-06-30 16:15:00,94.1,52.9,30.53,NE,45,11.4,11.4,25,0.00,,---,0.00,VWS V13.01,2013-06-30 23:15:00,
2013-06-30 16:20:00,93.7,50.4,30.53,North,0,6.3,6.3,23,0.00,,---,0.00,VWS V13.01,2013-06-30 23:20:00,
2013-06-30 16:25:00,93.4,51.2,30.53,North,0,9.2,12.3,24,0.00,,---,0.00,VWS V13.01,2013-06-30 23:25:00,
2013-06-30 16:30:00,93.9,50.5,30.53,North,0,10.5,10.5,23,0.00,,---,0.00,VWS V13.01,2013-06-30 23:30:00,
2013-06-30 16:35:00,93.9,50.5,30.53,North,0,5.4,7.2,23,0.00,,---,0.00,VWS V13.01,2013-06-30 23:35:00,
2013-06-30 16:40:00,93.9,50.5,30.53,NE,45,9.6,9.6,23,0.00,,---,0.00,VWS V13.01,2013-06-30 23:40:00,
2013-06-30 16:45:00,93.7,51.5,30.50,East,90,10.1,10.1,24,0.00,,---,0.00,VWS V13.01,2013-06-30 23:45:00,
2013-06-30 16:50:00,93.0,50.9,30.50,North,0,13.6,13.6,24,0.00,,---,0.00,VWS V13.01,2013-06-30 23:50:00,
2013-06-30 16:55:00,93.0,50.9,30.50,NE,45,10.5,11.0,24,0.00,,---,0.00,VWS V13.01,2013-06-30 23:55:00,
2013-06-30 17:00:00,93.0,50.9,30.50,NE,45,9.2,10.5,24,0.00,,---,0.00,VWS V13.01,2013-07-01 00:00:00,
2013-06-30 17:05:00,93.6,50.2,30.50,NE,45,10.1,10.1,23,0.00,,---,0.00,VWS V13.01,2013-07-01 00:05:00,
2013-06-30 17:10:00,93.4,50.1,30.50,NE,45,8.3,8.3,23,0.00,,---,0.00,VWS V13.01,2013-07-01 00:10:00,
2013-06-30 17:15:00,93.9,50.5,30.50,North,0,12.3,12.3,23,0.00,,---,0.00,VWS V13.01,2013-07-01 00:15:00,
2013-06-30 17:20:00,93.6,50.2,30.50,North,0,7.6,7.6,23,0.00,,---,0.00,VWS V13.01,2013-07-01 00:20:00,
2013-06-30 17:25:00,93.6,50.2,30.50,NE,45,8.1,8.1,23,0.00,,---,0.00,VWS V13.01,2013-07-01 00:25:00,
2013-06-30 17:30:00,93.4,50.1,30.50,NNE,22,8.1,8.1,23,0.00,,---,0.00,VWS V13.01,2013-07-01 00:30:00,
2013-06-30 17:35:00,93.6,50.2,30.50,NE,45,7.6,8.3,23,0.00,,---,0.00,VWS V13.01,2013-07-01 00:35:00,
2013-06-30 17:40:00,93.0,49.8,30.50,North,0,9.2,9.2,23,0.00,,---,0.00,VWS V13.01,2013-07-01 00:40:00,
2013-06-30 17:45:00,92.8,50.8,30.50,NNE,22,12.3,12.3,24,0.00,,---,0.00,VWS V13.01,2013-07-01 00:45:00,
2013-06-30 17:50:00,93.2,49.9,30.50,NE,45,5.8,8.3,23,0.00,,---,0.00,VWS V13.01,2013-07-01 00:50:00,
2013-06-30 17:55:00,93.2,49.9,30.50,North,0,10.1,10.1,23,0.00,,---,0.00,VWS V13.01,2013-07-01 00:55:00,
2013-06-30 18:00:00,92.8,49.6,30.50,NE,45,12.3,12.3,23,0.00,,---,0.00,VWS V13.01,2013-07-01 01:00:00,
2013-06-30 18:05:00,92.7,49.5,30.50,North,0,11.0,11.0,23,0.00,,---,0.00,VWS V13.01,2013-07-01 01:05:00,
2013-06-30 18:10:00,92.7,49.5,30.50,NE,45,11.0,15.0,23,0.00,,---,0.00,VWS V13.01,2013-07-01 01:10:00,
2013-06-30 18:15:00,92.5,49.3,30.50,NE,45,6.3,8.1,23,0.00,,---,0.00,VWS V13.01,2013-07-01 01:15:00,
2013-06-30 18:20:00,92.7,49.5,30.50,NE,45,10.1,12.3,23,0.00,,---,0.00,VWS V13.01,2013-07-01 01:20:00,
2013-06-30 18:25:00,92.7,50.6,30.50,NE,45,4.0,4.0,24,0.00,,---,0.00,VWS V13.01,2013-07-01 01:25:00,
2013-06-30 18:30:00,92.8,49.6,30.50,North,0,10.1,10.1,23,0.00,,---,0.00,VWS V13.01,2013-07-01 01:30:00,
2013-06-30 18:35:00,92.5,49.3,30.50,NE,45,10.1,11.0,23,0.00,,---,0.00,VWS V13.01,2013-07-01 01:35:00,
2013-06-30 18:40:00,91.9,48.9,30.50,NE,45,7.6,12.3,23,0.00,,---,0.00,VWS V13.01,2013-07-01 01:40:00,
2013-06-30 18:45:00,92.7,49.5,30.50,NW,315,10.5,10.5,23,0.00,,---,0.00,VWS V13.01,2013-07-01 01:45:00,
2013-06-30 18:50:00,91.9,48.9,30.50,NE,45,10.5,10.5,23,0.00,,---,0.00,VWS V13.01,2013-07-01 01:50:00,
2013-06-30 18:55:00,91.4,49.6,30.50,North,0,10.1,10.5,24,0.00,,---,0.00,VWS V13.01,2013-07-01 01:55:00,
2013-06-30 19:00:00,91.4,49.6,30.50,NE,45,6.7,8.1,24,0.00,,---,0.00,VWS V13.01,2013-07-01 02:00:00,
2013-06-30 19:05:00,91.4,49.6,30.50,NE,45,8.7,8.7,24,0.00,,---,0.00,VWS V13.01,2013-07-01 02:05:00,
2013-06-30 19:10:00,91.0,50.4,30.50,NE,45,7.6,11.9,25,0.00,,---,0.00,VWS V13.01,2013-07-01 02:10:00,
2013-06-30 19:15:00,90.7,50.1,30.50,North,0,11.9,11.9,25,0.00,,---,0.00,VWS V13.01,2013-07-01 02:15:00,
2013-06-30 19:20:00,90.3,50.8,30.50,NE,45,10.5,10.5,26,0.00,,---,0.00,VWS V13.01,2013-07-01 02:20:00,
2013-06-30 19:25:00,89.8,50.4,30.50,NE,45,6.3,6.3,26,0.00,,---,0.00,VWS V13.01,2013-07-01 02:25:00,
2013-06-30 19:30:00,89.1,50.8,30.50,NE,45,12.8,12.8,27,0.00,,---,0.00,VWS V13.01,2013-07-01 02:30:00,
2013-06-30 19:35:00,88.9,51.6,30.50,North,0,7.6,7.6,28,0.00,,---,0.00,VWS V13.01,2013-07-01 02:35:00,
2013-06-30 19:40:00,88.9,51.6,30.50,NE,45,13.2,13.2,28,0.00,,---,0.00,VWS V13.01,2013-07-01 02:40:00,
2013-06-30 19:45:00,88.7,51.4,30.50,NE,45,5.8,7.6,28,0.00,,---,0.00,VWS V13.01,2013-07-01 02:45:00,
2013-06-30 19:50:00,88.7,51.4,30.50,NE,45,8.1,11.0,28,0.00,,---,0.00,VWS V13.01,2013-07-01 02:50:00,
2013-06-30 19:55:00,88.3,51.1,30.50,North,0,7.6,7.6,28,0.00,,---,0.00,VWS V13.01,2013-07-01 02:55:00,
2013-06-30 20:00:00,88.2,51.0,30.50,North,0,6.3,6.3,28,0.00,,---,0.00,VWS V13.01,2013-07-01 03:00:00,
2013-06-30 20:05:00,87.8,50.7,30.50,North,0,8.3,8.3,28,0.00,,---,0.00,VWS V13.01,2013-07-01 03:05:00,
2013-06-30 20:10:00,87.4,51.3,30.50,North,0,5.4,7.2,29,0.00,,---,0.00,VWS V13.01,2013-07-01 03:10:00,
2013-06-30 20:15:00,87.3,51.2,30.50,North,0,5.4,5.4,29,0.00,,---,0.00,VWS V13.01,2013-07-01 03:15:00,
2013-06-30 20:20:00,87.1,51.0,30.50,North,0,8.1,8.1,29,0.00,,---,0.00,VWS V13.01,2013-07-01 03:20:00,
2013-06-30 20:25:00,86.9,50.8,30.50,NE,45,10.5,10.5,29,0.00,,---,0.00,VWS V13.01,2013-07-01 03:25:00,
2013-06-30 20:30:00,86.5,50.5,30.53,NE,45,6.3,11.4,29,0.00,,---,0.00,VWS V13.01,2013-07-01 03:30:00,
2013-06-30 20:35:00,86.2,50.2,30.53,NE,45,8.3,8.3,29,0.00,,---,0.00,VWS V13.01,2013-07-01 03:35:00,
2013-06-30 20:40:00,85.8,50.8,30.53,NE,45,7.2,8.3,30,0.00,,---,0.00,VWS V13.01,2013-07-01 03:40:00,
2013-06-30 20:45:00,85.6,50.7,30.53,NE,45,5.4,11.9,30,0.00,,---,0.00,VWS V13.01,2013-07-01 03:45:00,
2013-06-30 20:50:00,84.9,50.1,30.53,NE,45,8.7,8.7,30,0.00,,---,0.00,VWS V13.01,2013-07-01 03:50:00,
2013-06-30 20:55:00,84.9,50.1,30.53,North,0,8.1,10.5,30,0.00,,---,0.00,VWS V13.01,2013-07-01 03:55:00,
2013-06-30 21:00:00,84.9,50.1,30.53,North,0,4.0,8.3,30,0.00,,---,0.00,VWS V13.01,2013-07-01 04:00:00,
2013-06-30 21:01:00,84.9,50.1,30.53,North,0,7.6,7.6,30,0.00,,---,0.00,VWS V13.01,2013-07-01 04:01:00,
2013-06-30 21:06:00,84.2,49.4,30.53,NE,45,7.6,8.1,30,0.00,,---,0.00,VWS V13.01,2013-07-01 04:06:00,
2013-06-30 21:11:00,83.8,50.0,30.53,NE,45,7.6,7.6,31,0.00,,---,0.00,VWS V13.01,2013-07-01 04:11:00,
2013-06-30 21:16:00,83.3,50.4,30.53,NE,45,6.3,7.6,32,0.00,,---,0.00,VWS V13.01,2013-07-01 04:16:00,
2013-06-30 21:21:00,83.1,50.2,30.53,North,0,3.1,4.9,32,0.00,,---,0.00,VWS V13.01,2013-07-01 04:21:00,
2013-06-30 21:26:00,82.6,49.8,30.53,NE,45,3.1,3.1,32,0.00,,---,0.00,VWS V13.01,2013-07-01 04:26:00,
2013-06-30 21:31:00,82.2,50.3,30.53,North,0,4.0,5.8,33,0.00,,---,0.00,VWS V13.01,2013-07-01 04:31:00,
2013-06-30 21:36:00,81.9,50.0,30.53,NNW,338,4.9,7.6,33,0.00,,---,0.00,VWS V13.01,2013-07-01 04:36:00,
2013-06-30 21:41:00,81.5,50.5,30.53,North,0,5.8,6.3,34,0.00,,---,0.00,VWS V13.01,2013-07-01 04:41:00,
2013-06-30 21:46:00,81.1,50.1,30.53,North,0,5.8,5.8,34,0.00,,---,0.00,VWS V13.01,2013-07-01 04:46:00,
2013-06-30 21:51:00,80.8,50.6,30.53,North,0,4.9,4.9,35,0.00,,---,0.00,VWS V13.01,2013-07-01 04:51:00,
2013-06-30 21:56:00,80.6,50.5,30.53,North,0,4.9,6.3,35,0.00,,---,0.00,VWS V13.01,2013-07-01 04:56:00,
2013-06-30 22:01:00,80.4,51.0,30.56,North,0,3.1,3.6,36,0.00,,---,0.00,VWS V13.01,2013-07-01 05:01:00,
2013-06-30 22:06:00,80.1,50.7,30.56,North,0,4.0,4.0,36,0.00,,---,0.00,VWS V13.01,2013-07-01 05:06:00,
2013-06-30 22:11:00,79.7,51.2,30.56,North,0,4.0,4.9,37,0.00,,---,0.00,VWS V13.01,2013-07-01 05:11:00,
2013-06-30 22:16:00,79.3,50.8,30.56,North,0,3.1,3.6,37,0.00,,---,0.00,VWS V13.01,2013-07-01 05:16:00,
2013-06-30 22:21:00,79.0,51.2,30.56,NNW,338,3.1,3.1,38,0.00,,---,0.00,VWS V13.01,2013-07-01 05:21:00,
2013-06-30 22:26:00,78.6,51.6,30.56,NW,315,3.6,3.6,39,0.00,,---,0.00,VWS V13.01,2013-07-01 05:26:00,
2013-06-30 22:31:00,78.3,52.0,30.56,NW,315,2.7,2.7,40,0.00,,---,0.00,VWS V13.01,2013-07-01 05:31:00,
2013-06-30 22:36:00,77.9,52.3,30.56,NNW,338,3.6,3.6,41,0.00,,---,0.00,VWS V13.01,2013-07-01 05:36:00,
2013-06-30 22:41:00,77.7,52.2,30.56,NNW,338,2.7,3.1,41,0.00,,---,0.00,VWS V13.01,2013-07-01 05:41:00,
2013-06-30 22:46:00,77.5,52.0,30.56,NW,315,2.2,3.1,41,0.00,,---,0.00,VWS V13.01,2013-07-01 05:46:00,
2013-06-30 22:51:00,77.4,51.8,30.56,NW,315,2.7,4.0,41,0.00,,---,0.00,VWS V13.01,2013-07-01 05:51:00,
2013-06-30 22:56:00,77.2,52.3,30.56,North,0,2.2,2.2,42,0.00,,---,0.00,VWS V13.01,2013-07-01 05:56:00,
2013-06-30 23:01:00,77.0,52.2,30.56,NNW,338,2.7,2.7,42,0.00,,---,0.00,VWS V13.01,2013-07-01 06:01:00,
2013-06-30 23:06:00,76.8,52.0,30.56,WNW,292,2.7,2.7,42,0.00,,---,0.00,VWS V13.01,2013-07-01 06:06:00,
2013-06-30 23:11:00,76.6,51.8,30.56,NNW,338,3.1,3.1,42,0.00,,---,0.00,VWS V13.01,2013-07-01 06:11:00,
2013-06-30 23:16:00,76.6,51.8,30.56,NW,315,3.6,3.6,42,0.00,,---,0.00,VWS V13.01,2013-07-01 06:16:00,
2013-06-30 23:21:00,76.5,51.7,30.56,WNW,292,3.1,3.6,42,0.00,,---,0.00,VWS V13.01,2013-07-01 06:21:00,
2013-06-30 23:26:00,76.3,52.2,30.56,NW,315,0.0,0.0,43,0.00,,---,0.00,VWS V13.01,2013-07-01 06:26:00,
2013-06-30 23:31:00,75.9,51.8,30.56,NW,315,3.1,3.1,43,0.00,,---,0.00,VWS V13.01,2013-07-01 06:31:00,
2013-06-30 23:36:00,75.7,51.7,30.56,North,0,5.4,5.4,43,0.00,,---,0.00,VWS V13.01,2013-07-01 06:36:00,
2013-06-30 23:41:00,75.6,51.5,30.56,NW,315,2.2,2.7,43,0.00,,---,0.00,VWS V13.01,2013-07-01 06:41:00,
2013-06-30 23:46:00,75.2,51.2,30.56,NW,315,0.0,0.0,43,0.00,,---,0.00,VWS V13.01,2013-07-01 06:46:00,
2013-06-30 23:51:00,74.8,51.5,30.56,NW,315,0.0,0.0,44,0.00,,---,0.00,VWS V13.01,2013-07-01 06:51:00,
2013-06-30 23:56:00,74.5,51.2,30.56,NW,315,3.1,3.6,44,0.00,,---,0.00,VWS V13.01,2013-07-01 06:56:00,